QPF
0.09 0.08 0.06 0.06 0.06 0.08 0.09 0.08 0.08 0.08 0.06 0.05 0.04 0.04 0.04 0.04 0.05 0.05 0.04 0.03 0.04 0.05 0.05 0.06 0.06 0.06 0.05 0.06 0.05 0.05 0.04 0.03 0.02 0.01 0.01 0.01 0.01 0.01 0.01 0.00 0.00 0.00 0.00
0.08 0.09 0.08 0.07 0.07 0.07 0.08 0.08 0.06 0.06 0.07 0.06 0.05 0.04 0.04 0.04 0.06 0.05 0.04 0.03 0.04 0.04 0.05 0.05 0.07 0.08 0.06 0.05 0.04 0.03 0.03 0.03 0.02 0.02 0.01 0.01 0.01 0.00 0.00 0.00 0.00 0.00 0.00
0.07 0.08 0.09 0.08 0.07 0.07 0.08 0.07 0.07 0.05 0.06 0.06 0.05 0.04 0.03 0.04 0.05 0.05 0.04 0.03 0.03 0.04 0.05 0.05 0.06 0.08 0.08 0.06 0.03 0.02 0.02 0.02 0.02 0.02 0.02 0.01 0.01 0.01 0.00 0.00 0.00 0.00 0.00
0.07 0.08 0.09 0.07 0.06 0.06 0.06 0.06 0.06 0.06 0.05 0.06 0.06 0.05 0.04 0.04 0.04 0.04 0.04 0.03 0.02 0.03 0.04 0.04 0.04 0.06 0.08 0.08 0.05 0.03 0.02 0.02 0.01 0.02 0.02 0.01 0.01 0.01 0.01 0.01 0.01 0.01 0.01
0.07 0.09 0.09 0.08 0.06 0.05 0.05 0.05 0.05 0.05 0.05 0.05 0.05 0.06 0.05 0.05 0.05 0.03 0.03 0.03 0.03 0.03 0.03 0.03 0.03 0.04 0.06 0.08 0.08 0.05 0.02 0.02 0.01 0.01 0.01 0.01 0.01 0.01 0.01 0.01 0.01 0.01 0.01
0.08 0.09 0.08 0.08 0.06 0.06 0.05 0.04 0.05 0.05 0.04 0.04 0.03 0.04 0.05 0.05 0.04 0.04 0.03 0.02 0.02 0.03 0.03 0.03 0.02 0.03 0.05 0.06 0.09 0.08 0.04 0.02 0.01 0.01 0.01 0.01 0.01 0.01 0.01 0.01 0.01 0.01 0.01
0.08 0.08 0.07 0.07 0.06 0.05 0.05 0.04 0.04 0.04 0.04 0.03 0.03 0.03 0.04 0.05 0.05 0.04 0.03 0.02 0.02 0.02 0.02 0.03 0.03 0.03 0.04 0.04 0.06 0.08 0.06 0.03 0.01 0.01 0.01 0.01 0.01 0.01 0.01 0.01 0.01 0.01 0.01
0.06 0.06 0.05 0.05 0.04 0.04 0.03 0.03 0.03 0.03 0.04 0.03 0.04 0.04 0.03 0.05 0.05 0.05 0.04 0.03 0.02 0.02 0.02 0.02 0.02 0.02 0.03 0.04 0.05 0.06 0.06 0.04 0.02 0.01 0.01 0.01 0.01 0.01 0.01 0.01 0.01 0.01 0.00
0.05 0.05 0.04 0.03 0.03 0.04 0.03 0.03 0.03 0.03 0.04 0.03 0.03 0.04 0.04 0.04 0.05 0.05 0.04 0.03 0.03 0.03 0.02 0.02 0.02 0.02 0.02 0.03 0.05 0.05 0.06 0.05 0.03 0.01 0.01 0.01 0.01 0.01 0.01 0.01 0.01 0.01 0.01
0.04 0.04 0.05 0.05 0.05 0.06 0.05 0.03 0.03 0.03 0.03 0.03 0.04 0.04 0.05 0.05 0.05 0.05 0.04 0.03 0.03 0.02 0.02 0.02 0.02 0.02 0.02 0.02 0.03 0.05 0.05 0.06 0.03 0.01 0.01 0.01 0.00 0.00 0.00 0.01 0.01 0.02 0.01
0.04 0.05 0.06 0.05 0.05 0.06 0.05 0.03 0.03 0.03 0.03 0.03 0.04 0.04 0.03 0.04 0.04 0.04 0.05 0.04 0.03 0.02 0.02 0.02 0.02 0.02 0.02 0.02 0.03 0.03 0.04 0.05 0.05 0.03 0.01 0.01 0.01 0.00 0.00 0.00 0.01 0.01 0.02
0.04 0.04 0.05 0.04 0.03 0.05 0.04 0.03 0.03 0.03 0.03 0.03 0.03 0.03 0.03 0.03 0.04 0.04 0.05 0.05 0.05 0.04 0.02 0.02 0.02 0.02 0.02 0.02 0.02 0.03 0.04 0.04 0.04 0.05 0.04 0.01 0.01 0.01 0.00 0.00 0.00 0.01 0.01
0.04 0.04 0.04 0.04 0.03 0.04 0.03 0.03 0.02 0.02 0.03 0.03 0.03 0.03 0.03 0.03 0.03 0.04 0.05 0.05 0.05 0.05 0.04 0.02 0.02 0.02 0.02 0.02 0.02 0.02 0.03 0.03 0.03 0.04 0.05 0.03 0.01 0.01 0.00 0.00 0.00 0.00 0.00
0.04 0.04 0.04 0.04 0.03 0.03 0.03 0.02 0.02 0.02 0.02 0.03 0.03 0.03 0.03 0.03 0.03 0.03 0.04 0.04 0.04 0.04 0.04 0.02 0.02 0.02 0.02 0.02 0.02 0.01 0.02 0.03 0.03 0.03 0.03 0.04 0.02 0.01 0.01 0.01 0.01 0.01 0.01
0.04 0.04 0.04 0.04 0.03 0.03 0.02 0.02 0.02 0.02 0.03 0.03 0.03 0.03 0.03 0.04 0.03 0.04 0.04 0.04 0.04 0.03 0.03 0.03 0.02 0.02 0.02 0.02 0.02 0.01 0.02 0.02 0.02 0.02 0.02 0.03 0.03 0.03 0.02 0.01 0.01 0.01 0.01
0.03 0.04 0.04 0.04 0.03 0.03 0.03 0.02 0.02 0.02 0.02 0.02 0.02 0.02 0.03 0.03 0.03 0.03 0.03 0.03 0.03 0.03 0.03 0.03 0.02 0.02 0.02 0.01 0.02 0.02 0.02 0.02 0.02 0.02 0.02 0.02 0.03 0.03 0.03 0.02 0.01 0.01 0.01
0.03 0.03 0.04 0.04 0.03 0.02 0.03 0.02 0.02 0.01 0.01 0.01 0.02 0.02 0.02 0.02 0.03 0.03 0.03 0.03 0.03 0.03 0.03 0.03 0.02 0.02 0.02 0.02 0.02 0.02 0.02 0.02 0.02 0.02 0.02 0.01 0.02 0.02 0.02 0.02 0.01 0.01 0.01
0.03 0.03 0.03 0.03 0.03 0.02 0.02 0.02 0.02 0.02 0.01 0.01 0.01 0.02 0.02 0.02 0.03 0.03 0.03 0.03 0.03 0.03 0.03 0.03 0.03 0.03 0.02 0.02 0.03 0.02 0.02 0.02 0.02 0.02 0.03 0.02 0.02 0.02 0.02 0.02 0.01 0.01 0.01
0.03 0.03 0.03 0.03 0.03 0.03 0.02 0.01 0.01 0.01 0.01 0.01 0.01 0.01 0.02 0.02 0.03 0.04 0.04 0.03 0.03 0.03 0.03 0.03 0.03 0.03 0.03 0.03 0.03 0.03 0.03 0.03 0.02 0.02 0.02 0.02 0.02 0.02 0.02 0.02 0.01 0.01 0.01
0.02 0.03 0.02 0.02 0.03 0.03 0.03 0.02 0.02 0.02 0.01 0.01 0.01 0.02 0.02 0.03 0.04 0.05 0.04 0.03 0.03 0.04 0.03 0.03 0.03 0.03 0.03 0.03 0.03 0.04 0.04 0.04 0.04 0.04 0.03 0.03 0.02 0.02 0.02 0.02 0.01 0.01 0.01
0.02 0.02 0.02 0.02 0.02 0.03 0.04 0.03 0.02 0.02 0.02 0.02 0.02 0.02 0.03 0.03 0.04 0.04 0.05 0.04 0.04 0.04 0.04 0.03 0.03 0.03 0.02 0.02 0.03 0.04 0.04 0.04 0.04 0.04 0.04 0.04 0.03 0.03 0.02 0.02 0.02 0.01 0.01
0.01 0.01 0.01 0.01 0.02 0.02 0.03 0.04 0.03 0.02 0.02 0.02 0.02 0.02 0.03 0.03 0.03 0.04 0.04 0.05 0.04 0.03 0.03 0.03 0.03 0.03 0.02 0.02 0.03 0.03 0.03 0.03 0.03 0.03 0.03 0.03 0.03 0.02 0.02 0.02 0.02 0.01 0.01
0.01 0.01 0.01 0.01 0.01 0.02 0.02 0.03 0.03 0.03 0.03 0.03 0.03 0.03 0.04 0.04 0.04 0.03 0.04 0.04 0.04 0.03 0.03 0.03 0.03 0.03 0.02 0.03 0.03 0.03 0.03 0.02 0.02 0.02 0.02 0.02 0.02 0.02 0.02 0.02 0.01 0.01 0.01
0.01 0.01 0.00 0.01 0.01 0.01 0.01 0.02 0.02 0.03 0.03 0.03 0.04 0.05 0.05 0.05 0.04 0.04 0.04 0.03 0.03 0.03 0.03 0.03 0.03 0.03 0.03 0.02 0.02 0.02 0.02 0.02 0.02 0.01 0.01 0.01 0.01 0.01 0.01 0.01 0.01 0.01 0.01
0.01 0.01 0.00 0.00 0.00 0.00 0.01 0.01 0.02 0.02 0.02 0.03 0.03 0.04 0.05 0.05 0.05 0.04 0.04 0.03 0.03 0.03 0.03 0.03 0.03 0.03 0.03 0.02 0.02 0.02 0.03 0.02 0.02 0.02 0.02 0.03 0.02 0.01 0.01 0.02 0.01 0.01 0.01
0.00 0.00 0.00 0.00 0.00 0.00 0.01 0.01 0.01 0.02 0.02 0.03 0.03 0.04 0.04 0.04 0.04 0.03 0.03 0.03 0.03 0.03 0.03 0.03 0.03 0.03 0.03 0.03 0.03 0.03 0.03 0.03 0.03 0.03 0.03 0.03 0.02 0.01 0.01 0.02 0.02 0.01 0.01
MSLP
1014.73 1014.28 1013.84 1013.39 1012.92 1012.44 1011.96 1011.52 1011.13 1010.83 1010.63 1010.56 1010.60 1010.74 1010.96 1011.24 1011.55 1011.87 1012.21 1012.54 1012.88 1013.22 1013.56 1013.89 1014.20 1014.49 1014.73 1014.93 1015.08 1015.17 1015.23 1015.25 1015.25 1015.23 1015.21 1015.18 1015.15 1015.10 1015.05 1014.97 1014.87 1014.75 1014.61
1015.04 1014.53 1014.03 1013.50 1012.97 1012.42 1011.89 1011.38 1010.94 1010.59 1010.34 1010.21 1010.19 1010.27 1010.43 1010.65 1010.90 1011.18 1011.48 1011.79 1012.10 1012.42 1012.74 1013.06 1013.37 1013.65 1013.91 1014.12 1014.30 1014.43 1014.54 1014.62 1014.67 1014.72 1014.74 1014.76 1014.75 1014.71 1014.65 1014.56 1014.43 1014.28 1014.09
1015.44 1014.89 1014.32 1013.74 1013.14 1012.53 1011.93 1011.37 1010.88 1010.47 1010.16 1009.96 1009.87 1009.88 1009.97 1010.12 1010.31 1010.54 1010.80 1011.08 1011.37 1011.67 1011.98 1012.29 1012.59 1012.87 1013.13 1013.35 1013.53 1013.69 1013.82 1013.93 1014.02 1014.10 1014.16 1014.20 1014.21 1014.19 1014.13 1014.03 1013.90 1013.72 1013.52
1015.90 1015.31 1014.70 1014.06 1013.41 1012.74 1012.09 1011.48 1010.93 1010.46 1010.09 1009.82 1009.65 1009.58 1009.58 1009.66 1009.79 1009.96 1010.18 1010.42 1010.70 1010.99 1011.30 1011.60 1011.90 1012.17 1012.41 1012.62 1012.79 1012.94 1013.06 1013.17 1013.26 1013.35 1013.42 1013.48 1013.51 1013.51 1013.47 1013.39 1013.26 1013.09 1012.89
1016.35 1015.74 1015.10 1014.43 1013.74 1013.03 1012.34 1011.68 1011.07 1010.54 1010.10 1009.76 1009.51 1009.35 1009.27 1009.26 1009.32 1009.44 1009.61 1009.83 1010.09 1010.38 1010.67 1010.97 1011.26 1011.51 1011.73 1011.91 1012.05 1012.16 1012.24 1012.32 1012.39 1012.46 1012.53 1012.60 1012.65 1012.68 1012.67 1012.62 1012.54 1012.41 1012.23
1016.73 1016.13 1015.48 1014.80 1014.09 1013.36 1012.63 1011.93 1011.28 1010.70 1010.19 1009.77 1009.44 1009.19 1009.03 1008.94 1008.92 1008.98 1009.11 1009.29 1009.53 1009.80 1010.09 1010.38 1010.65 1010.88 1011.06 1011.20 1011.28 1011.33 1011.36 1011.38 1011.41 1011.45 1011.51 1011.58 1011.65 1011.72 1011.77 1011.78 1011.75 1011.68 1011.57
1016.98 1016.41 1015.78 1015.11 1014.40 1013.67 1012.93 1012.21 1011.53 1010.90 1010.34 1009.85 1009.44 1009.11 1008.86 1008.68 1008.59 1008.58 1008.65 1008.80 1009.00 1009.25 1009.52 1009.79 1010.03 1010.23 1010.37 1010.45 1010.47 1010.46 1010.42 1010.38 1010.36 1010.37 1010.41 1010.49 1010.59 1010.71 1010.82 1010.91 1010.96 1010.97 1010.91
1017.07 1016.54 1015.96 1015.32 1014.63 1013.91 1013.18 1012.46 1011.76 1011.11 1010.51 1009.97 1009.50 1009.09 1008.76 1008.50 1008.33 1008.25 1008.25 1008.34 1008.50 1008.70 1008.94 1009.17 1009.37 1009.53 1009.62 1009.65 1009.62 1009.55 1009.46 1009.37 1009.31 1009.29 1009.33 1009.42 1009.56 1009.73 1009.90 1010.07 1010.20 1010.29 1010.30
1017.01 1016.54 1016.00 1015.40 1014.75 1014.06 1013.35 1012.65 1011.96 1011.30 1010.69 1010.12 1009.60 1009.14 1008.74 1008.41 1008.15 1007.99 1007.92 1007.93 1008.02 1008.17 1008.35 1008.53 1008.69 1008.80 1008.86 1008.84 1008.78 1008.67 1008.54 1008.42 1008.34 1008.32 1008.36 1008.47 1008.64 1008.85 1009.09 1009.32 1009.52 1009.66 1009.73
1016.82 1016.40 1015.90 1015.35 1014.73 1014.09 1013.42 1012.75 1012.09 1011.45 1010.85 1010.27 1009.73 1009.23 1008.78 1008.38 1008.06 1007.81 1007.65 1007.58 1007.59 1007.66 1007.77 1007.89 1008.00 1008.08 1008.10 1008.07 1007.98 1007.86 1007.73 1007.62 1007.54 1007.52 1007.57 1007.70 1007.89 1008.14 1008.41 1008.67 1008.91 1009.10 1009.19
1016.57 1016.16 1015.70 1015.17 1014.60 1013.99 1013.37 1012.75 1012.14 1011.54 1010.96 1010.40 1009.86 1009.34 1008.86 1008.42 1008.03 1007.70 1007.46 1007.30 1007.22 1007.20 1007.24 1007.30 1007.36 1007.40 1007.41 1007.37 1007.30 1007.19 1007.09 1006.99 1006.94 1006.93 1007.00 1007.14 1007.34 1007.59 1007.86 1008.14 1008.38 1008.56 1008.66
1016.27 1015.87 1015.42 1014.91 1014.36 1013.79 1013.22 1012.65 1012.09 1011.54 1011.01 1010.49 1009.97 1009.46 1008.96 1008.49 1008.05 1007.66 1007.34 1007.09 1006.92 1006.82 1006.77 1006.77 1006.79 1006.81 1006.81 1006.79 1006.74 1006.68 1006.61 1006.56 1006.53 1006.56 1006.63 1006.77 1006.96 1007.18 1007.43 1007.66 1007.87 1008.03 1008.10
1015.97 1015.55 1015.08 1014.58 1014.05 1013.51 1012.98 1012.46 1011.96 1011.47 1010.99 1010.52 1010.04 1009.55 1009.05 1008.56 1008.09 1007.65 1007.26 1006.94 1006.69 1006.51 1006.40 1006.34 1006.32 1006.32 1006.32 1006.32 1006.31 1006.30 1006.28 1006.27 1006.28 1006.32 1006.40 1006.52 1006.67 1006.85 1007.03 1007.21 1007.36 1007.46 1007.49
1015.67 1015.22 1014.73 1014.22 1013.70 1013.18 1012.69 1012.21 1011.76 1011.33 1010.90 1010.47 1010.03 1009.57 1009.09 1008.59 1008.10 1007.63 1007.20 1006.82 1006.50 1006.26 1006.09 1005.98 1005.93 1005.92 1005.93 1005.95 1005.98 1006.00 1006.03 1006.06 1006.10 1006.15 1006.22 1006.30 1006.40 1006.51 1006.62 1006.72 1006.80 1006.83 1006.80
1015.37 1014.88 1014.38 1013.86 1013.34 1012.84 1012.37 1011.92 1011.51 1011.11 1010.72 1010.33 1009.92 1009.49 1009.03 1008.55 1008.06 1007.58 1007.12 1006.70 1006.35 1006.06 1005.84 1005.70 1005.61 1005.58 1005.59 1005.62 1005.67 1005.73 1005.78 1005.84 1005.89 1005.94 1005.98 1006.03 1006.08 1006.12 1006.15 1006.18 1006.18 1006.14 1006.06
1015.05 1014.55 1014.03 1013.51 1013.00 1012.51 1012.05 1011.62 1011.22 1010.84 1010.47 1010.10 1009.71 1009.30 1008.86 1008.40 1007.92 1007.44 1006.98 1006.56 1006.18 1005.87 1005.62 1005.45 1005.34 1005.28 1005.27 1005.30 1005.35 1005.41 1005.47 1005.53 1005.58 1005.62 1005.64 1005.65 1005.65 1005.64 1005.61 1005.57 1005.52 1005.43 1005.32
1014.70 1014.19 1013.68 1013.17 1012.68 1012.20 1011.74 1011.32 1010.92 1010.53 1010.16 1009.78 1009.40 1008.99 1008.57 1008.13 1007.67 1007.22 1006.78 1006.36 1005.99 1005.67 1005.41 1005.21 1005.07 1004.99 1004.95 1004.95 1004.98 1005.03 1005.07 1005.12 1005.15 1005.17 1005.18 1005.16 1005.13 1005.09 1005.03 1004.95 1004.86 1004.75 1004.61
1014.30 1013.82 1013.33 1012.85 1012.37 1011.90 1011.45 1011.02 1010.60 1010.19 1009.79 1009.39 1008.99 1008.59 1008.18 1007.75 1007.33 1006.91 1006.50 1006.12 1005.77 1005.46 1005.19 1004.98 1004.81 1004.69 1004.61 1004.57 1004.56 1004.56 1004.58 1004.60 1004.61 1004.62 1004.61 1004.59 1004.56 1004.51 1004.44 1004.36 1004.27 1004.15 1004.00
1013.84 1013.40 1012.96 1012.52 1012.07 1011.62 1011.16 1010.71 1010.26 1009.81 1009.38 1008.95 1008.52 1008.11 1007.70 1007.30 1006.91 1006.54 1006.18 1005.83 1005.51 1005.22 1004.97 1004.74 1004.54 1004.38 1004.26 1004.16 1004.09 1004.04 1004.02 1004.00 1003.99 1003.99 1003.99 1003.98 1003.96 1003.94 1003.90 1003.84 1003.76 1003.65 1003.50
1013.33 1012.95 1012.56 1012.16 1011.74 1011.31 1010.85 1010.38 1009.90 1009.41 1008.93 1008.47 1008.02 1007.59 1007.19 1006.81 1006.46 1006.13 1005.82 1005.53 1005.25 1004.98 1004.73 1004.50 1004.27 1004.07 1003.88 1003.72 1003.59 1003.49 1003.41 1003.36 1003.34 1003.33 1003.34 1003.36 1003.39 1003.41 1003.41 1003.39 1003.35 1003.26 1003.11
1012.78 1012.45 1012.12 1011.76 1011.38 1010.96 1010.50 1010.02 1009.51 1008.99 1008.48 1007.98 1007.51 1007.08 1006.68 1006.33 1006.01 1005.73 1005.46 1005.22 1004.97 1004.73 1004.48 1004.23 1003.98 1003.72 1003.48 1003.26 1003.06 1002.90 1002.78 1002.70 1002.66 1002.66 1002.70 1002.76 1002.83 1002.90 1002.96 1003.00 1002.98 1002.92 1002.78
1012.20 1011.92 1011.64 1011.32 1010.97 1010.57 1010.12 1009.63 1009.10 1008.57 1008.03 1007.51 1007.03 1006.60 1006.22 1005.88 1005.59 1005.34 1005.12 1004.90 1004.68 1004.45 1004.19 1003.92 1003.63 1003.33 1003.02 1002.74 1002.48 1002.26 1002.10 1002.00 1001.95 1001.97 1002.03 1002.13 1002.26 1002.38 1002.50 1002.58 1002.60 1002.55 1002.41
1011.63 1011.38 1011.12 1010.84 1010.51 1010.13 1009.69 1009.21 1008.69 1008.14 1007.61 1007.09 1006.61 1006.18 1005.81 1005.49 1005.22 1004.99 1004.78 1004.57 1004.35 1004.10 1003.83 1003.52 1003.18 1002.82 1002.46 1002.12 1001.81 1001.55 1001.35 1001.23 1001.18 1001.21 1001.30 1001.43 1001.60 1001.78 1001.94 1002.06 1002.11 1002.08 1001.94
1011.07 1010.83 1010.59 1010.33 1010.02 1009.66 1009.24 1008.77 1008.27 1007.74 1007.22 1006.71 1006.24 1005.82 1005.46 1005.15 1004.88 1004.65 1004.42 1004.20 1003.95 1003.67 1003.34 1002.98 1002.59 1002.18 1001.76 1001.37 1001.01 1000.72 1000.49 1000.36 1000.31 1000.34 1000.46 1000.62 1000.82 1001.03 1001.23 1001.37 1001.45 1001.43 1001.30
1010.55 1010.31 1010.08 1009.82 1009.53 1009.18 1008.78 1008.34 1007.86 1007.36 1006.86 1006.37 1005.92 1005.52 1005.16 1004.84 1004.55 1004.29 1004.03 1003.75 1003.45 1003.11 1002.73 1002.30 1001.85 1001.38 1000.91 1000.47 1000.08 999.76 999.52 999.38 999.33 999.37 999.50 999.68 999.90 1000.13 1000.34 1000.51 1000.60 1000.60 1000.48
1010.09 1009.84 1009.59 1009.33 1009.04 1008.70 1008.32 1007.90 1007.45 1006.98 1006.51 1006.06 1005.62 1005.22 1004.86 1004.52 1004.20 1003.89 1003.57 1003.23 1002.85 1002.43 1001.97 1001.48 1000.96 1000.44 999.93 999.46 999.05 998.71 998.47 998.32 998.28 998.33 998.46 998.65 998.87 999.11 999.32 999.50 999.60 999.62 999.54
Thickness
5491 5494 5496 5499 5502 5505 5509 5514 5517 5520 5524 5527 5529 5532 5535 5537 5539 5541 5542 5544 5546 5546 5546 5546 5548 5548 5548 5546 5544 5542 5540 5538 5534 5531 5528 5526 5523 5521 5519 5516 5513 5511 5508
5481 5483 5486 5489 5492 5495 5499 5503 5507 5511 5514 5517 5519 5522 5525 5529 5531 5532 5534 5536 5538 5539 5540 5539 5539 5540 5539 5538 5536 5534 5532 5530 5527 5524 5521 5518 5516 5514 5512 5509 5506 5503 5501
5469 5472 5476 5479 5482 5485 5489 5492 5496 5500 5504 5507 5510 5513 5517 5520 5522 5524 5526 5528 5529 5531 5531 5531 5532 5532 5530 5529 5528 5526 5524 5522 5520 5516 5513 5510 5508 5505 5503 5500 5498 5495 5493
5458 5461 5465 5469 5472 5476 5479 5483 5486 5490 5494 5497 5501 5504 5508 5512 5515 5517 5518 5519 5520 5522 5522 5523 5524 5523 5522 5521 5520 5519 5517 5514 5511 5508 5506 5503 5501 5497 5494 5492 5490 5487 5485
5449 5452 5456 5460 5463 5467 5470 5473 5476 5480 5483 5487 5491 5494 5498 5502 5506 5509 5510 5510 5511 5513 5514 5515 5515 5515 5515 5514 5514 5512 5510 5507 5504 5501 5499 5496 5493 5490 5487 5485 5482 5480 5478
5440 5442 5446 5451 5455 5458 5460 5463 5466 5469 5473 5477 5481 5485 5489 5494 5497 5499 5501 5501 5502 5504 5504 5506 5506 5506 5506 5506 5506 5505 5504 5501 5498 5495 5492 5490 5488 5484 5482 5479 5475 5473 5472
5431 5435 5438 5442 5445 5448 5452 5454 5457 5460 5463 5468 5471 5475 5479 5483 5487 5490 5491 5492 5493 5494 5495 5496 5497 5498 5497 5497 5497 5496 5495 5494 5493 5490 5487 5485 5482 5479 5476 5472 5469 5466 5464
5424 5427 5430 5433 5436 5440 5443 5445 5448 5451 5454 5458 5462 5466 5469 5473 5477 5480 5482 5483 5485 5486 5487 5488 5489 5489 5489 5489 5488 5487 5486 5485 5484 5483 5482 5480 5477 5473 5470 5466 5462 5459 5456
5417 5420 5423 5425 5428 5431 5434 5436 5439 5442 5445 5449 5453 5457 5460 5463 5467 5470 5473 5475 5476 5477 5479 5480 5481 5481 5481 5481 5480 5479 5477 5476 5475 5475 5474 5472 5470 5467 5463 5459 5455 5452 5450
5409 5411 5413 5416 5419 5422 5425 5427 5430 5433 5437 5441 5444 5448 5451 5454 5458 5461 5464 5467 5468 5469 5470 5471 5472 5473 5473 5473 5472 5471 5469 5468 5467 5466 5464 5463 5461 5459 5456 5453 5450 5446 5443
5400 5403 5405 5407 5410 5413 5416 5419 5422 5425 5428 5431 5435 5439 5442 5445 5449 5452 5455 5458 5459 5461 5462 5463 5464 5465 5465 5465 5464 5463 5462 5460 5458 5457 5455 5454 5452 5450 5448 5446 5443 5440 5437
5391 5394 5396 5399 5402 5406 5408 5409 5413 5416 5419 5422 5426 5429 5433 5436 5440 5443 5447 5449 5451 5453 5454 5455 5456 5457 5457 5456 5456 5455 5453 5452 5450 5448 5447 5445 5443 5442 5440 5438 5437 5434 5432
5383 5385 5388 5390 5393 5396 5398 5401 5404 5407 5410 5413 5416 5420 5424 5427 5431 5434 5437 5441 5443 5445 5445 5446 5447 5448 5447 5447 5447 5446 5444 5442 5441 5440 5439 5437 5436 5435 5433 5431 5430 5428 5426
5374 5376 5379 5381 5384 5386 5389 5392 5395 5398 5400 5404 5408 5411 5415 5418 5422 5425 5428 5431 5434 5435 5436 5437 5438 5438 5438 5438 5437 5436 5435 5435 5434 5433 5431 5429 5428 5427 5426 5425 5423 5421 5419
5366 5368 5370 5373 5375 5377 5379 5382 5385 5388 5392 5396 5399 5403 5407 5411 5414 5418 5420 5422 5424 5426 5427 5427 5427 5428 5428 5428 5427 5427 5426 5426 5425 5424 5423 5422 5421 5421 5419 5418 5417 5415 5413
5358 5360 5362 5364 5366 5368 5371 5373 5376 5381 5385 5388 5392 5395 5399 5403 5406 5410 5413 5415 5417 5418 5418 5418 5418 5419 5419 5419 5419 5419 5419 5419 5418 5417 5417 5416 5415 5414 5412 5412 5411 5409 5408
5350 5352 5353 5355 5357 5360 5362 5365 5368 5372 5376 5379 5383 5387 5391 5395 5398 5402 5405 5407 5408 5409 5409 5410 5410 5410 5411 5411 5411 5411 5412 5412 5412 5410 5410 5410 5409 5408 5406 5406 5405 5404 5402
5343 5345 5346 5347 5349 5351 5353 5356 5358 5362 5365 5369 5373 5377 5382 5386 5390 5393 5396 5397 5398 5399 5401 5402 5402 5403 5403 5404 5404 5404 5404 5404 5404 5404 5404 5403 5403 5402 5401 5401 5400 5399 5398
5336 5337 5338 5339 5341 5343 5345 5347 5350 5352 5356 5359 5363 5367 5372 5377 5381 5384 5386 5388 5389 5391 5392 5394 5395 5396 5396 5397 5397 5397 5397 5398 5397 5397 5397 5397 5398 5397 5397 5396 5396 5396 5395
5329 5330 5331 5332 5333 5334 5336 5339 5341 5343 5346 5350 5353 5357 5362 5367 5371 5374 5377 5380 5381 5383 5384 5386 5387 5388 5390 5390 5390 5391 5391 5391 5392 5392 5392 5392 5393 5393 5394 5393 5392 5392 5391
5321 5322 5324 5324 5325 5327 5329 5331 5333 5335 5338 5341 5344 5349 5354 5358 5362 5366 5369 5372 5374 5376 5377 5379 5380 5381 5383 5384 5384 5385 5385 5386 5387 5387 5387 5388 5388 5389 5389 5389 5389 5388 5387
5314 5314 5315 5316 5318 5320 5322 5324 5325 5328 5330 5333 5336 5341 5347 5350 5354 5358 5361 5365 5367 5369 5371 5372 5374 5376 5377 5378 5379 5380 5380 5381 5382 5383 5383 5384 5384 5385 5385 5385 5385 5385 5384
5307 5308 5308 5309 5311 5313 5314 5316 5318 5321 5323 5326 5329 5333 5337 5342 5347 5351 5354 5357 5360 5363 5364 5366 5368 5369 5371 5372 5373 5375 5376 5377 5379 5379 5380 5381 5381 5381 5381 5381 5381 5381 5381
5301 5302 5302 5303 5304 5305 5307 5309 5311 5314 5317 5319 5322 5326 5330 5335 5340 5344 5347 5350 5353 5356 5358 5360 5362 5364 5365 5366 5368 5370 5372 5374 5375 5376 5377 5378 5378 5378 5378 5377 5377 5377 5377
5295 5296 5296 5296 5297 5299 5301 5303 5305 5307 5310 5313 5316 5320 5324 5329 5333 5337 5341 5344 5347 5350 5353 5355 5356 5358 5360 5362 5363 5366 5368 5370 5372 5373 5374 5375 5375 5375 5375 5374 5374 5374 5374
5289 5290 5290 5291 5291 5293 5295 5297 5299 5301 5304 5307 5311 5314 5318 5323 5327 5331 5335 5338 5341 5344 5347 5349 5351 5353 5355 5357 5360 5362 5364 5366 5368 5370 5371 5372 5372 5372 5372 5371 5371 5371 5371